Time,TemperatureF,DewpointF,PressureIn,WindDirection,WindDirectionDegrees,WindSpeedMPH,WindSpeedGustMPH,Humidity,HourlyPrecipIn,Conditions,Clouds,dailyrainin,SoftwareType,DateUTC
2013-03-04 00:04:00,45.6,0.0,0.00,WSW,248,4.2,6.6,0,0.00,,,0.00,WUHU216PEETBRO,2013-03-04 06:04:00,
2013-03-04 00:09:00,45.9,0.0,0.00,WSW,245,1.5,7.1,0,0.00,,,0.00,WUHU216PEETBRO,2013-03-04 06:09:00,
2013-03-04 00:15:00,45.9,0.0,0.00,WSW,237,3.0,7.1,0,0.00,,,0.00,WUHU216PEETBRO,2013-03-04 06:15:00,
2013-03-04 00:20:00,45.4,0.0,0.00,SW,234,2.9,6.3,0,0.00,,,0.00,WUHU216PEETBRO,2013-03-04 06:20:00,
2013-03-04 00:25:00,45.6,0.0,0.00,WSW,254,2.7,6.3,0,0.00,,,0.00,WUHU216PEETBRO,2013-03-04 06:25:00,
2013-03-04 00:30:00,44.9,0.0,0.00,SW,234,2.7,5.9,0,0.00,,,0.00,WUHU216PEETBRO,2013-03-04 06:30:00,
2013-03-04 00:35:00,45.4,0.0,0.00,ESE,114,0.9,4.7,0,0.00,,,0.00,WUHU216PEETBRO,2013-03-04 06:35:00,
2013-03-04 00:40:00,45.5,0.0,0.00,WSW,237,1.6,4.7,0,0.00,,,0.00,WUHU216PEETBRO,2013-03-04 06:40:00,
2013-03-04 00:45:00,44.6,0.0,0.00,SSW,206,0.0,2.4,0,0.00,,,0.00,WUHU216PEETBRO,2013-03-04 06:45:00,
2013-03-04 00:50:00,44.9,0.0,0.00,SSW,206,0.0,2.0,0,0.00,,,0.00,WUHU216PEETBRO,2013-03-04 06:50:00,
2013-03-04 00:55:00,44.9,0.0,0.00,South,179,0.9,2.2,0,0.00,,,0.00,WUHU216PEETBRO,2013-03-04 06:55:00,
2013-03-04 00:59:00,44.4,0.0,0.00,South,182,0.0,2.2,0,0.00,,,0.00,WUHU216PEETBRO,2013-03-04 06:59:00,
2013-03-04 01:05:00,45.1,0.0,0.00,South,182,0.0,0.7,0,0.00,,,0.00,WUHU216PEETBRO,2013-03-04 07:05:00,
2013-03-04 01:10:00,44.3,0.0,0.00,South,182,0.0,0.0,0,0.00,,,0.00,WUHU216PEETBRO,2013-03-04 07:10:00,
2013-03-04 01:15:00,44.4,0.0,0.00,NE,45,0.0,1.9,0,0.00,,,0.00,WUHU216PEETBRO,2013-03-04 07:15:00,
2013-03-04 01:20:00,44.5,0.0,0.00,SE,142,0.0,1.9,0,0.00,,,0.00,WUHU216PEETBRO,2013-03-04 07:20:00,
2013-03-04 01:25:00,44.4,0.0,0.00,WSW,256,0.0,1.7,0,0.00,,,0.00,WUHU216PEETBRO,2013-03-04 07:25:00,
2013-03-04 01:30:00,44.4,0.0,0.00,ESE,122,0.6,2.9,0,0.00,,,0.00,WUHU216PEETBRO,2013-03-04 07:30:00,
2013-03-04 01:35:00,44.5,0.0,0.00,ESE,122,0.0,2.9,0,0.00,,,0.00,WUHU216PEETBRO,2013-03-04 07:35:00,
2013-03-04 01:40:00,44.5,0.0,0.00,SW,235,0.0,2.0,0,0.00,,,0.00,WUHU216PEETBRO,2013-03-04 07:40:00,
2013-03-04 01:45:00,43.6,0.0,0.00,SSW,211,0.0,2.5,0,0.00,,,0.00,WUHU216PEETBRO,2013-03-04 07:45:00,
2013-03-04 01:50:00,43.8,0.0,0.00,SSW,200,0.0,2.5,0,0.00,,,0.00,WUHU216PEETBRO,2013-03-04 07:50:00,
2013-03-04 01:55:00,44.0,0.0,0.00,SSW,200,0.0,2.1,0,0.00,,,0.00,WUHU216PEETBRO,2013-03-04 07:55:00,
2013-03-04 02:00:00,43.5,0.0,0.00,SSW,200,0.0,0.3,0,0.00,,,0.00,WUHU216PEETBRO,2013-03-04 08:00:00,
2013-03-04 02:05:00,43.0,0.0,0.00,SSW,200,0.0,0.0,0,0.00,,,0.00,WUHU216PEETBRO,2013-03-04 08:05:00,
2013-03-04 02:10:00,41.1,0.0,0.00,SSW,200,0.0,0.0,0,0.00,,,0.00,WUHU216PEETBRO,2013-03-04 08:10:00,
2013-03-04 02:15:00,41.0,0.0,0.00,SSW,200,0.0,0.0,0,0.00,,,0.00,WUHU216PEETBRO,2013-03-04 08:15:00,
2013-03-04 02:20:00,41.1,0.0,0.00,SSW,200,0.0,0.0,0,0.00,,,0.00,WUHU216PEETBRO,2013-03-04 08:20:00,
2013-03-04 02:25:00,41.6,0.0,0.00,SSW,200,0.0,0.0,0,0.00,,,0.00,WUHU216PEETBRO,2013-03-04 08:25:00,
2013-03-04 02:30:00,40.5,0.0,0.00,SSW,200,0.0,0.0,0,0.00,,,0.00,WUHU216PEETBRO,2013-03-04 08:30:00,
2013-03-04 02:35:00,39.5,0.0,0.00,SSW,200,0.0,0.0,0,0.00,,,0.00,WUHU216PEETBRO,2013-03-04 08:35:00,
2013-03-04 02:40:00,40.5,0.0,0.00,SSW,200,0.0,0.0,0,0.00,,,0.00,WUHU216PEETBRO,2013-03-04 08:40:00,
2013-03-04 02:45:00,41.1,0.0,0.00,SE,146,0.0,0.9,0,0.00,,,0.00,WUHU216PEETBRO,2013-03-04 08:45:00,
2013-03-04 02:50:00,41.0,0.0,0.00,SE,146,0.0,0.9,0,0.00,,,0.00,WUHU216PEETBRO,2013-03-04 08:50:00,
2013-03-04 02:55:00,41.2,0.0,0.00,SE,146,0.0,0.0,0,0.00,,,0.00,WUHU216PEETBRO,2013-03-04 08:55:00,
2013-03-04 03:00:00,41.0,0.0,0.00,SE,146,0.0,0.0,0,0.00,,,0.00,WUHU216PEETBRO,2013-03-04 09:00:00,
2013-03-04 03:05:00,41.2,0.0,0.00,SE,146,0.0,0.0,0,0.00,,,0.00,WUHU216PEETBRO,2013-03-04 09:05:00,
2013-03-04 03:10:00,41.6,0.0,0.00,SSE,162,0.6,0.6,0,0.00,,,0.00,WUHU216PEETBRO,2013-03-04 09:10:00,
2013-03-04 03:15:00,41.3,0.0,0.00,South,170,1.4,2.5,0,0.00,,,0.00,WUHU216PEETBRO,2013-03-04 09:15:00,
2013-03-04 03:20:00,41.9,0.0,0.00,ESE,114,0.0,2.5,0,0.00,,,0.00,WUHU216PEETBRO,2013-03-04 09:20:00,
2013-03-04 03:25:00,41.6,0.0,0.00,ESE,114,0.0,1.4,0,0.00,,,0.00,WUHU216PEETBRO,2013-03-04 09:25:00,
2013-03-04 03:30:00,41.0,0.0,0.00,ESE,114,0.0,0.0,0,0.00,,,0.00,WUHU216PEETBRO,2013-03-04 09:30:00,
2013-03-04 03:35:00,41.6,0.0,0.00,ESE,114,0.0,0.5,0,0.00,,,0.00,WUHU216PEETBRO,2013-03-04 09:35:00,
2013-03-04 03:40:00,42.3,0.0,0.00,ESE,114,0.0,0.5,0,0.00,,,0.00,WUHU216PEETBRO,2013-03-04 09:40:00,
2013-03-04 03:45:00,42.1,0.0,0.00,SW,214,0.0,3.2,0,0.00,,,0.00,WUHU216PEETBRO,2013-03-04 09:45:00,
2013-03-04 03:50:00,42.5,0.0,0.00,SE,141,2.2,3.4,0,0.00,,,0.00,WUHU216PEETBRO,2013-03-04 09:50:00,
2013-03-04 03:55:00,42.3,0.0,0.00,SSW,193,0.0,4.1,0,0.00,,,0.00,WUHU216PEETBRO,2013-03-04 09:55:00,
2013-03-04 04:00:00,43.0,0.0,0.00,SE,134,0.0,4.1,0,0.00,,,0.00,WUHU216PEETBRO,2013-03-04 10:00:00,
2013-03-04 04:05:00,43.5,0.0,0.00,SSW,201,1.2,4.3,0,0.00,,,0.00,WUHU216PEETBRO,2013-03-04 10:05:00,
2013-03-04 04:10:00,43.0,0.0,0.00,South,186,3.2,4.3,0,0.00,,,0.00,WUHU216PEETBRO,2013-03-04 10:10:00,
2013-03-04 04:15:00,44.3,0.0,0.00,SSW,213,1.9,3.5,0,0.00,,,0.00,WUHU216PEETBRO,2013-03-04 10:15:00,
2013-03-04 04:20:00,44.8,0.0,0.00,East,100,1.1,5.0,0,0.00,,,0.00,WUHU216PEETBRO,2013-03-04 10:20:00,
2013-03-04 04:25:00,44.9,0.0,0.00,East,90,0.8,5.0,0,0.00,,,0.00,WUHU216PEETBRO,2013-03-04 10:25:00,
2013-03-04 04:30:00,44.6,0.0,0.00,SSW,201,0.0,2.8,0,0.00,,,0.00,WUHU216PEETBRO,2013-03-04 10:30:00,
2013-03-04 04:35:00,45.6,0.0,0.00,SW,223,1.1,3.7,0,0.00,,,0.00,WUHU216PEETBRO,2013-03-04 10:35:00,
2013-03-04 04:40:00,46.1,0.0,0.00,SE,132,0.7,6.7,0,0.00,,,0.00,WUHU216PEETBRO,2013-03-04 10:40:00,
2013-03-04 04:45:00,45.6,0.0,0.00,SW,224,0.0,6.7,0,0.00,,,0.00,WUHU216PEETBRO,2013-03-04 10:45:00,
2013-03-04 04:50:00,45.8,0.0,0.00,SSE,167,0.0,4.8,0,0.00,,,0.00,WUHU216PEETBRO,2013-03-04 10:50:00,
2013-03-04 04:55:00,45.9,0.0,0.00,SW,218,0.0,4.8,0,0.00,,,0.00,WUHU216PEETBRO,2013-03-04 10:55:00,
2013-03-04 05:00:00,45.6,0.0,0.00,SE,145,2.0,3.9,0,0.00,,,0.00,WUHU216PEETBRO,2013-03-04 11:00:00,
2013-03-04 05:05:00,45.9,0.0,0.00,SSE,152,1.4,4.1,0,0.00,,,0.00,WUHU216PEETBRO,2013-03-04 11:05:00,
2013-03-04 05:10:00,45.6,0.0,0.00,ESE,104,0.8,5.8,0,0.00,,,0.00,WUHU216PEETBRO,2013-03-04 11:10:00,
2013-03-04 05:15:00,45.8,0.0,0.00,SW,217,1.6,5.8,0,0.00,,,0.00,WUHU216PEETBRO,2013-03-04 11:15:00,
2013-03-04 05:20:00,45.6,0.0,0.00,South,179,0.6,5.7,0,0.00,,,0.00,WUHU216PEETBRO,2013-03-04 11:20:00,
2013-03-04 05:25:00,46.4,0.0,0.00,ESE,114,3.5,5.7,0,0.00,,,0.00,WUHU216PEETBRO,2013-03-04 11:25:00,
2013-03-04 05:30:00,46.4,0.0,0.00,SSE,162,1.1,6.0,0,0.00,,,0.00,WUHU216PEETBRO,2013-03-04 11:30:00,
2013-03-04 05:35:00,45.9,0.0,0.00,East,88,0.5,7.5,0,0.00,,,0.00,WUHU216PEETBRO,2013-03-04 11:35:00,
2013-03-04 05:40:00,45.9,0.0,0.00,East,100,0.0,7.5,0,0.00,,,0.00,WUHU216PEETBRO,2013-03-04 11:40:00,
2013-03-04 05:45:00,45.9,0.0,0.00,South,184,2.6,4.9,0,0.00,,,0.00,WUHU216PEETBRO,2013-03-04 11:45:00,
2013-03-04 05:50:00,45.6,0.0,0.00,WSW,245,0.2,4.9,0,0.00,,,0.00,WUHU216PEETBRO,2013-03-04 11:50:00,
2013-03-04 05:55:00,45.6,0.0,0.00,East,84,0.0,6.2,0,0.00,,,0.00,WUHU216PEETBRO,2013-03-04 11:55:00,
2013-03-04 06:00:00,45.6,0.0,0.00,SE,136,3.9,6.2,0,0.00,,,0.00,WUHU216PEETBRO,2013-03-04 12:00:00,
2013-03-04 06:05:00,45.6,0.0,0.00,SSW,206,1.5,4.2,0,0.00,,,0.00,WUHU216PEETBRO,2013-03-04 12:05:00,
2013-03-04 06:10:00,45.6,0.0,0.00,East,97,0.0,3.9,0,0.00,,,0.00,WUHU216PEETBRO,2013-03-04 12:10:00,
2013-03-04 06:15:00,45.1,0.0,0.00,NE,50,0.6,2.8,0,0.00,,,0.00,WUHU216PEETBRO,2013-03-04 12:15:00,
2013-03-04 06:20:00,45.4,0.0,0.00,East,87,3.2,4.8,0,0.00,,,0.00,WUHU216PEETBRO,2013-03-04 12:20:00,
2013-03-04 06:25:00,45.9,0.0,0.00,ENE,77,1.7,5.2,0,0.00,,,0.00,WUHU216PEETBRO,2013-03-04 12:25:00,
2013-03-04 06:30:00,45.9,0.0,0.00,SSW,207,4.0,5.2,0,0.00,,,0.00,WUHU216PEETBRO,2013-03-04 12:30:00,
2013-03-04 06:35:00,45.6,0.0,0.00,NNE,22,1.1,4.7,0,0.00,,,0.00,WUHU216PEETBRO,2013-03-04 12:35:00,
2013-03-04 06:40:00,46.7,0.0,0.00,South,172,0.0,4.8,0,0.00,,,0.00,WUHU216PEETBRO,2013-03-04 12:40:00,
2013-03-04 06:45:00,46.7,0.0,0.00,SSW,213,1.7,4.8,0,0.00,,,0.00,WUHU216PEETBRO,2013-03-04 12:45:00,
2013-03-04 06:50:00,47.7,0.0,0.00,SSE,155,0.4,5.0,0,0.00,,,0.00,WUHU216PEETBRO,2013-03-04 12:50:00,
2013-03-04 06:55:00,50.0,0.0,0.00,SSW,200,2.8,5.0,0,0.00,,,0.00,WUHU216PEETBRO,2013-03-04 12:55:00,
2013-03-04 07:00:00,50.2,0.0,0.00,WSW,242,2.8,5.0,0,0.00,,,0.00,WUHU216PEETBRO,2013-03-04 13:00:00,
2013-03-04 07:05:00,50.9,0.0,0.00,NNE,23,3.0,5.8,0,0.00,,,0.00,WUHU216PEETBRO,2013-03-04 13:05:00,
2013-03-04 07:10:00,49.7,0.0,0.00,SSE,153,1.4,5.8,0,0.00,,,0.00,WUHU216PEETBRO,2013-03-04 13:10:00,
2013-03-04 07:15:00,51.7,0.0,0.00,SSW,199,1.2,7.0,0,0.00,,,0.00,WUHU216PEETBRO,2013-03-04 13:15:00,
2013-03-04 07:20:00,51.4,0.0,0.00,ESE,115,3.9,7.0,0,0.00,,,0.00,WUHU216PEETBRO,2013-03-04 13:20:00,
2013-03-04 07:25:00,53.2,0.0,0.00,South,176,3.3,7.0,0,0.00,,,0.00,WUHU216PEETBRO,2013-03-04 13:25:00,
2013-03-04 07:30:00,54.5,0.0,0.00,SW,234,2.9,6.4,0,0.00,,,0.00,WUHU216PEETBRO,2013-03-04 13:30:00,
2013-03-04 07:35:00,56.7,0.0,0.00,South,169,2.5,6.4,0,0.00,,,0.00,WUHU216PEETBRO,2013-03-04 13:35:00,
2013-03-04 07:40:00,54.7,0.0,0.00,South,169,1.4,6.2,0,0.00,,,0.00,WUHU216PEETBRO,2013-03-04 13:40:00,
2013-03-04 07:45:00,57.4,0.0,0.00,South,190,2.2,8.5,0,0.00,,,0.00,WUHU216PEETBRO,2013-03-04 13:45:00,
2013-03-04 07:50:00,59.3,0.0,0.00,SW,223,2.8,8.5,0,0.00,,,0.00,WUHU216PEETBRO,2013-03-04 13:50:00,
2013-03-04 07:55:00,59.1,0.0,0.00,SSW,211,2.2,8.7,0,0.00,,,0.00,WUHU216PEETBRO,2013-03-04 13:55:00,
2013-03-04 08:00:00,59.1,0.0,0.00,SSE,159,5.7,10.7,0,0.00,,,0.00,WUHU216PEETBRO,2013-03-04 14:00:00,
2013-03-04 08:05:00,60.0,0.0,0.00,SW,215,3.2,13.5,0,0.00,,,0.00,WUHU216PEETBRO,2013-03-04 14:05:00,
2013-03-04 08:10:00,59.7,0.0,0.00,SSW,211,5.2,13.5,0,0.00,,,0.00,WUHU216PEETBRO,2013-03-04 14:10:00,
2013-03-04 08:15:00,60.5,0.0,0.00,WSW,241,5.7,12.2,0,0.00,,,0.00,WUHU216PEETBRO,2013-03-04 14:15:00,
2013-03-04 08:20:00,59.4,0.0,0.00,SSE,163,7.4,15.7,0,0.00,,,0.00,WUHU216PEETBRO,2013-03-04 14:20:00,
2013-03-04 08:25:00,62.8,0.0,0.00,WSW,241,6.0,15.7,0,0.00,,,0.00,WUHU216PEETBRO,2013-03-04 14:25:00,
2013-03-04 08:30:00,61.4,0.0,0.00,WSW,252,11.5,16.7,0,0.00,,,0.00,WUHU216PEETBRO,2013-03-04 14:30:00,
2013-03-04 08:35:00,62.8,0.0,0.00,South,170,6.7,16.7,0,0.00,,,0.00,WUHU216PEETBRO,2013-03-04 14:35:00,
2013-03-04 08:40:00,64.0,0.0,0.00,SSE,167,7.6,11.5,0,0.00,,,0.00,WUHU216PEETBRO,2013-03-04 14:40:00,
2013-03-04 08:45:00,62.8,0.0,0.00,SSW,208,10.3,19.5,0,0.00,,,0.00,WUHU216PEETBRO,2013-03-04 14:45:00,
2013-03-04 08:50:00,62.5,0.0,0.00,SSW,211,9.3,19.5,0,0.00,,,0.00,WUHU216PEETBRO,2013-03-04 14:50:00,
2013-03-04 08:55:00,64.3,0.0,0.00,South,189,3.5,15.0,0,0.00,,,0.00,WUHU216PEETBRO,2013-03-04 14:55:00,
2013-03-04 09:00:00,64.3,0.0,0.00,SSW,203,9.9,18.5,0,0.00,,,0.00,WUHU216PEETBRO,2013-03-04 15:00:00,
2013-03-04 09:05:00,65.9,0.0,0.00,SSW,204,4.0,18.5,0,0.00,,,0.00,WUHU216PEETBRO,2013-03-04 15:05:00,
2013-03-04 09:10:00,65.0,0.0,0.00,ESE,119,4.5,14.0,0,0.00,,,0.00,WUHU216PEETBRO,2013-03-04 15:10:00,
2013-03-04 09:15:00,66.8,0.0,0.00,SSW,213,12.6,14.0,0,0.00,,,0.00,WUHU216PEETBRO,2013-03-04 15:15:00,
2013-03-04 09:20:00,68.3,0.0,0.00,SW,218,10.4,16.8,0,0.00,,,0.00,WUHU216PEETBRO,2013-03-04 15:20:00,
2013-03-04 09:25:00,65.3,0.0,0.00,East,98,8.4,16.8,0,0.00,,,0.00,WUHU216PEETBRO,2013-03-04 15:25:00,
2013-03-04 09:30:00,65.9,0.0,0.00,SE,124,9.9,16.2,0,0.00,,,0.00,WUHU216PEETBRO,2013-03-04 15:30:00,
2013-03-04 09:35:00,67.7,0.0,0.00,West,275,6.0,17.1,0,0.00,,,0.00,WUHU216PEETBRO,2013-03-04 15:35:00,
2013-03-04 09:40:00,67.7,0.0,0.00,SW,231,4.2,17.1,0,0.00,,,0.00,WUHU216PEETBRO,2013-03-04 15:40:00,
2013-03-04 09:45:00,68.7,0.0,0.00,WSW,248,8.8,20.0,0,0.00,,,0.00,WUHU216PEETBRO,2013-03-04 15:45:00,
2013-03-04 09:50:00,70.8,0.0,0.00,SSW,211,6.5,20.0,0,0.00,,,0.00,WUHU216PEETBRO,2013-03-04 15:50:00,
2013-03-04 09:55:00,69.0,0.0,0.00,SSE,167,8.1,18.1,0,0.00,,,0.00,WUHU216PEETBRO,2013-03-04 15:55:00,
2013-03-04 10:00:00,70.2,0.0,0.00,WSW,244,9.5,21.9,0,0.00,,,0.00,WUHU216PEETBRO,2013-03-04 16:00:00,
2013-03-04 10:05:00,69.2,0.0,0.00,SW,231,14.4,22.9,0,0.00,,,0.00,WUHU216PEETBRO,2013-03-04 16:05:00,
2013-03-04 10:10:00,65.9,0.0,0.00,WSW,247,11.5,22.9,0,0.00,,,0.00,WUHU216PEETBRO,2013-03-04 16:10:00,
2013-03-04 10:15:00,68.7,0.0,0.00,WSW,244,10.2,21.7,0,0.00,,,0.00,WUHU216PEETBRO,2013-03-04 16:15:00,
2013-03-04 10:20:00,68.6,0.0,0.00,WSW,258,10.2,22.9,0,0.00,,,0.00,WUHU216PEETBRO,2013-03-04 16:20:00,
2013-03-04 10:25:00,70.2,0.0,0.00,West,280,8.1,22.9,0,0.00,,,0.00,WUHU216PEETBRO,2013-03-04 16:25:00,
2013-03-04 10:30:00,68.7,0.0,0.00,SSW,208,11.9,19.6,0,0.00,,,0.00,WUHU216PEETBRO,2013-03-04 16:30:00,
2013-03-04 10:35:00,68.7,0.0,0.00,West,272,4.1,17.5,0,0.00,,,0.00,WUHU216PEETBRO,2013-03-04 16:35:00,
2013-03-04 10:40:00,69.0,0.0,0.00,WNW,297,4.7,17.5,0,0.00,,,0.00,WUHU216PEETBRO,2013-03-04 16:40:00,
2013-03-04 10:45:00,72.0,0.0,0.00,SW,227,11.5,18.0,0,0.00,,,0.00,WUHU216PEETBRO,2013-03-04 16:45:00,
2013-03-04 10:50:00,70.8,0.0,0.00,West,275,7.8,21.6,0,0.00,,,0.00,WUHU216PEETBRO,2013-03-04 16:50:00,
2013-03-04 10:55:00,73.6,0.0,0.00,SSW,196,10.8,21.6,0,0.00,,,0.00,WUHU216PEETBRO,2013-03-04 16:55:00,
2013-03-04 11:00:00,69.5,0.0,0.00,SSE,149,8.8,21.6,0,0.00,,,0.00,WUHU216PEETBRO,2013-03-04 17:00:00,
2013-03-04 11:05:00,68.5,0.0,0.00,WSW,256,12.4,21.7,0,0.00,,,0.00,WUHU216PEETBRO,2013-03-04 17:05:00,
2013-03-04 11:10:00,68.5,0.0,0.00,WNW,287,9.0,21.7,0,0.00,,,0.00,WUHU216PEETBRO,2013-03-04 17:10:00,
2013-03-04 11:15:00,69.0,0.0,0.00,SW,234,12.8,18.6,0,0.00,,,0.00,WUHU216PEETBRO,2013-03-04 17:15:00,
2013-03-04 11:20:00,68.8,0.0,0.00,SSW,203,9.5,18.6,0,0.00,,,0.00,WUHU216PEETBRO,2013-03-04 17:20:00,
2013-03-04 11:24:00,70.5,0.0,0.00,SSE,155,9.8,17.4,0,0.00,,,0.00,WUHU216PEETBRO,2013-03-04 17:24:00,
2013-03-04 11:29:00,70.8,0.0,0.00,SE,141,7.4,18.5,0,0.00,,,0.00,WUHU216PEETBRO,2013-03-04 17:29:00,
2013-03-04 11:34:00,69.9,0.0,0.00,SSE,152,8.0,18.5,0,0.00,,,0.00,WUHU216PEETBRO,2013-03-04 17:34:00,
2013-03-04 11:39:00,72.7,0.0,0.00,SW,231,8.4,19.0,0,0.00,,,0.00,WUHU216PEETBRO,2013-03-04 17:39:00,
2013-03-04 11:44:00,74.2,0.0,0.00,WSW,247,9.4,19.0,0,0.00,,,0.00,WUHU216PEETBRO,2013-03-04 17:44:00,
2013-03-04 11:49:00,75.5,0.0,0.00,SSW,196,4.6,17.5,0,0.00,,,0.00,WUHU216PEETBRO,2013-03-04 17:49:00,
2013-03-04 11:54:00,74.2,0.0,0.00,WSW,247,11.0,17.5,0,0.00,,,0.00,WUHU216PEETBRO,2013-03-04 17:54:00,
2013-03-04 11:59:00,74.2,0.0,0.00,SSW,199,15.0,23.1,0,0.00,,,0.00,WUHU216PEETBRO,2013-03-04 17:59:00,
2013-03-04 12:04:00,74.9,0.0,0.00,SW,235,8.6,27.1,0,0.00,,,0.00,WUHU216PEETBRO,2013-03-04 18:04:00,
2013-03-04 12:10:00,75.5,0.0,0.00,SW,235,7.1,27.1,0,0.00,,,0.00,WUHU216PEETBRO,2013-03-04 18:10:00,
2013-03-04 12:15:00,73.3,0.0,0.00,South,183,11.7,24.7,0,0.00,,,0.00,WUHU216PEETBRO,2013-03-04 18:15:00,
2013-03-04 12:19:00,74.3,0.0,0.00,ENE,60,17.9,24.7,0,0.00,,,0.00,WUHU216PEETBRO,2013-03-04 18:19:00,
2013-03-04 12:24:00,77.1,0.0,0.00,South,179,6.0,24.4,0,0.00,,,0.00,WUHU216PEETBRO,2013-03-04 18:24:00,
2013-03-04 12:29:00,78.1,0.0,0.00,SSW,206,18.8,24.4,0,0.00,,,0.00,WUHU216PEETBRO,2013-03-04 18:29:00,
2013-03-04 12:34:00,77.1,0.0,0.00,WSW,247,7.6,23.1,0,0.00,,,0.00,WUHU216PEETBRO,2013-03-04 18:34:00,
2013-03-04 12:39:00,75.2,0.0,0.00,West,275,8.8,30.6,0,0.00,,,0.00,WUHU216PEETBRO,2013-03-04 18:39:00,
2013-03-04 12:44:00,75.9,0.0,0.00,South,176,11.1,30.6,0,0.00,,,0.00,WUHU216PEETBRO,2013-03-04 18:44:00,
2013-03-04 12:49:00,79.0,0.0,0.00,SSW,199,4.2,29.5,0,0.00,,,0.00,WUHU216PEETBRO,2013-03-04 18:49:00,
2013-03-04 12:54:00,74.2,0.0,0.00,WSW,248,18.1,29.5,0,0.00,,,0.00,WUHU216PEETBRO,2013-03-04 18:54:00,
2013-03-04 12:59:00,77.8,0.0,0.00,SW,234,13.6,24.0,0,0.00,,,0.00,WUHU216PEETBRO,2013-03-04 18:59:00,
2013-03-04 13:04:00,74.2,0.0,0.00,SW,234,13.2,24.0,0,0.00,,,0.00,WUHU216PEETBRO,2013-03-04 19:04:00,
2013-03-04 13:09:00,80.0,0.0,0.00,WSW,255,13.2,21.3,0,0.00,,,0.00,WUHU216PEETBRO,2013-03-04 19:09:00,
2013-03-04 13:14:00,78.4,0.0,0.00,West,259,9.3,19.8,0,0.00,,,0.00,WUHU216PEETBRO,2013-03-04 19:14:00,
2013-03-04 13:19:00,78.8,0.0,0.00,WSW,255,11.7,18.6,0,0.00,,,0.00,WUHU216PEETBRO,2013-03-04 19:19:00,
2013-03-04 13:24:00,76.1,0.0,0.00,West,271,8.9,19.4,0,0.00,,,0.00,WUHU216PEETBRO,2013-03-04 19:24:00,
2013-03-04 13:29:00,77.1,0.0,0.00,SW,230,12.5,19.4,0,0.00,,,0.00,WUHU216PEETBRO,2013-03-04 19:29:00,
2013-03-04 13:34:00,73.6,0.0,0.00,WSW,256,10.0,23.5,0,0.00,,,0.00,WUHU216PEETBRO,2013-03-04 19:34:00,
2013-03-04 13:39:00,74.1,0.0,0.00,WNW,299,6.4,25.0,0,0.00,,,0.00,WUHU216PEETBRO,2013-03-04 19:39:00,
2013-03-04 13:44:00,74.9,0.0,0.00,SW,230,5.7,25.0,0,0.00,,,0.00,WUHU216PEETBRO,2013-03-04 19:44:00,
2013-03-04 13:49:00,74.4,0.0,0.00,SSE,153,9.8,22.5,0,0.00,,,0.00,WUHU216PEETBRO,2013-03-04 19:49:00,
2013-03-04 13:54:00,74.2,0.0,0.00,WSW,255,6.5,22.5,0,0.00,,,0.00,WUHU216PEETBRO,2013-03-04 19:54:00,
2013-03-04 13:59:00,73.9,0.0,0.00,WNW,295,7.6,20.8,0,0.00,,,0.00,WUHU216PEETBRO,2013-03-04 19:59:00,
2013-03-04 14:04:00,74.7,0.0,0.00,West,265,8.0,20.8,0,0.00,,,0.00,WUHU216PEETBRO,2013-03-04 20:04:00,
2013-03-04 14:09:00,77.1,0.0,0.00,WNW,287,7.7,22.4,0,0.00,,,0.00,WUHU216PEETBRO,2013-03-04 20:09:00,
2013-03-04 14:14:00,74.9,0.0,0.00,SSW,197,10.0,24.4,0,0.00,,,0.00,WUHU216PEETBRO,2013-03-04 20:14:00,
2013-03-04 14:19:00,74.9,0.0,0.00,SSW,213,9.3,24.4,0,0.00,,,0.00,WUHU216PEETBRO,2013-03-04 20:19:00,
2013-03-04 14:24:00,73.6,0.0,0.00,SSW,196,19.0,25.7,0,0.00,,,0.00,WUHU216PEETBRO,2013-03-04 20:24:00,
2013-03-04 14:29:00,76.8,0.0,0.00,WSW,252,8.8,25.7,0,0.00,,,0.00,WUHU216PEETBRO,2013-03-04 20:29:00,
2013-03-04 14:34:00,76.2,0.0,0.00,WNW,286,8.8,23.5,0,0.00,,,0.00,WUHU216PEETBRO,2013-03-04 20:34:00,
2013-03-04 14:39:00,77.4,0.0,0.00,SW,220,10.2,23.5,0,0.00,,,0.00,WUHU216PEETBRO,2013-03-04 20:39:00,
2013-03-04 14:44:00,75.2,0.0,0.00,West,280,8.0,20.8,0,0.00,,,0.00,WUHU216PEETBRO,2013-03-04 20:44:00,
2013-03-04 14:49:00,75.9,0.0,0.00,SW,228,20.1,24.5,0,0.00,,,0.00,WUHU216PEETBRO,2013-03-04 20:49:00,
2013-03-04 14:54:00,74.8,0.0,0.00,WSW,242,11.4,26.0,0,0.00,,,0.00,WUHU216PEETBRO,2013-03-04 20:54:00,
2013-03-04 14:59:00,77.9,0.0,0.00,SW,221,17.9,26.0,0,0.00,,,0.00,WUHU216PEETBRO,2013-03-04 20:59:00,
2013-03-04 15:04:00,74.2,0.0,0.00,WSW,238,12.3,23.5,0,0.00,,,0.00,WUHU216PEETBRO,2013-03-04 21:04:00,
2013-03-04 15:09:00,72.8,0.0,0.00,WSW,248,11.6,23.0,0,0.00,,,0.00,WUHU216PEETBRO,2013-03-04 21:09:00,
2013-03-04 15:14:00,72.7,0.0,0.00,SSW,193,10.6,18.6,0,0.00,,,0.00,WUHU216PEETBRO,2013-03-04 21:14:00,
2013-03-04 15:19:00,72.7,0.0,0.00,WNW,287,5.5,21.3,0,0.00,,,0.00,WUHU216PEETBRO,2013-03-04 21:19:00,
2013-03-04 15:24:00,72.9,0.0,0.00,West,268,10.1,21.3,0,0.00,,,0.00,WUHU216PEETBRO,2013-03-04 21:24:00,
2013-03-04 15:29:00,71.7,0.0,0.00,SW,218,12.9,21.1,0,0.00,,,0.00,WUHU216PEETBRO,2013-03-04 21:29:00,
2013-03-04 15:34:00,72.7,0.0,0.00,SW,218,14.4,23.1,0,0.00,,,0.00,WUHU216PEETBRO,2013-03-04 21:34:00,
2013-03-04 15:39:00,72.7,0.0,0.00,WSW,248,8.1,23.1,0,0.00,,,0.00,WUHU216PEETBRO,2013-03-04 21:39:00,
2013-03-04 15:44:00,72.0,0.0,0.00,West,271,8.1,19.6,0,0.00,,,0.00,WUHU216PEETBRO,2013-03-04 21:44:00,
2013-03-04 15:49:00,72.0,0.0,0.00,WNW,286,6.6,19.6,0,0.00,,,0.00,WUHU216PEETBRO,2013-03-04 21:49:00,
2013-03-04 15:54:00,71.7,0.0,0.00,SW,230,10.1,17.6,0,0.00,,,0.00,WUHU216PEETBRO,2013-03-04 21:54:00,
2013-03-04 15:59:00,71.7,0.0,0.00,SW,225,8.2,15.9,0,0.00,,,0.00,WUHU216PEETBRO,2013-03-04 21:59:00,
2013-03-04 16:04:00,71.4,0.0,0.00,WSW,249,10.9,20.7,0,0.00,,,0.00,WUHU216PEETBRO,2013-03-04 22:04:00,
2013-03-04 16:09:00,70.5,0.0,0.00,SSW,207,9.4,20.7,0,0.00,,,0.00,WUHU216PEETBRO,2013-03-04 22:09:00,
2013-03-04 16:14:00,71.4,0.0,0.00,NW,306,3.5,18.9,0,0.00,,,0.00,WUHU216PEETBRO,2013-03-04 22:14:00,
2013-03-04 16:19:00,70.8,0.0,0.00,WSW,254,9.8,18.2,0,0.00,,,0.00,WUHU216PEETBRO,2013-03-04 22:19:00,
2013-03-04 16:24:00,70.5,0.0,0.00,WSW,247,14.7,18.2,0,0.00,,,0.00,WUHU216PEETBRO,2013-03-04 22:24:00,
2013-03-04 16:29:00,69.6,0.0,0.00,SSW,206,16.1,26.2,0,0.00,,,0.00,WUHU216PEETBRO,2013-03-04 22:29:00,
2013-03-04 16:34:00,70.5,0.0,0.00,South,170,10.3,26.2,0,0.00,,,0.00,WUHU216PEETBRO,2013-03-04 22:34:00,
2013-03-04 16:39:00,69.6,0.0,0.00,West,271,6.6,18.5,0,0.00,,,0.00,WUHU216PEETBRO,2013-03-04 22:39:00,
2013-03-04 16:44:00,70.2,0.0,0.00,SW,232,9.8,17.4,0,0.00,,,0.00,WUHU216PEETBRO,2013-03-04 22:44:00,
2013-03-04 16:49:00,69.9,0.0,0.00,West,278,6.2,16.2,0,0.00,,,0.00,WUHU216PEETBRO,2013-03-04 22:49:00,
2013-03-04 16:54:00,69.9,0.0,0.00,West,265,7.4,16.0,0,0.00,,,0.00,WUHU216PEETBRO,2013-03-04 22:54:00,
2013-03-04 16:59:00,70.2,0.0,0.00,SSW,203,8.9,16.1,0,0.00,,,0.00,WUHU216PEETBRO,2013-03-04 22:59:00,
2013-03-04 17:04:00,69.4,0.0,0.00,SW,221,15.4,17.5,0,0.00,,,0.00,WUHU216PEETBRO,2013-03-04 23:04:00,
2013-03-04 17:09:00,69.6,0.0,0.00,West,266,7.2,17.5,0,0.00,,,0.00,WUHU216PEETBRO,2013-03-04 23:09:00,
2013-03-04 17:14:00,68.7,0.0,0.00,SW,235,7.3,16.7,0,0.00,,,0.00,WUHU216PEETBRO,2013-03-04 23:14:00,
2013-03-04 17:19:00,69.0,0.0,0.00,SW,220,9.9,16.7,0,0.00,,,0.00,WUHU216PEETBRO,2013-03-04 23:19:00,
2013-03-04 17:24:00,69.0,0.0,0.00,WNW,285,2.8,15.7,0,0.00,,,0.00,WUHU216PEETBRO,2013-03-04 23:24:00,
2013-03-04 17:29:00,68.7,0.0,0.00,SW,218,5.3,16.4,0,0.00,,,0.00,WUHU216PEETBRO,2013-03-04 23:29:00,
2013-03-04 17:34:00,68.5,0.0,0.00,West,263,4.3,16.4,0,0.00,,,0.00,WUHU216PEETBRO,2013-03-04 23:34:00,
2013-03-04 17:39:00,68.5,0.0,0.00,WSW,252,7.4,16.6,0,0.00,,,0.00,WUHU216PEETBRO,2013-03-04 23:39:00,
2013-03-04 17:44:00,67.7,0.0,0.00,WSW,256,7.3,16.6,0,0.00,,,0.00,WUHU216PEETBRO,2013-03-04 23:44:00,
2013-03-04 17:49:00,67.7,0.0,0.00,WNW,292,5.5,20.5,0,0.00,,,0.00,WUHU216PEETBRO,2013-03-04 23:49:00,
2013-03-04 17:54:00,68.0,0.0,0.00,SW,231,9.8,20.5,0,0.00,,,0.00,WUHU216PEETBRO,2013-03-04 23:54:00,
2013-03-04 17:59:00,67.7,0.0,0.00,West,261,3.2,21.3,0,0.00,,,0.00,WUHU216PEETBRO,2013-03-04 23:59:00,
2013-03-04 18:04:00,67.3,0.0,0.00,WSW,244,5.6,21.3,0,0.00,,,0.00,WUHU216PEETBRO,2013-03-05 00:04:00,
2013-03-04 18:09:00,66.8,0.0,0.00,WSW,241,10.8,18.7,0,0.00,,,0.00,WUHU216PEETBRO,2013-03-05 00:09:00,
2013-03-04 18:14:00,66.8,0.0,0.00,SSW,194,7.0,16.1,0,0.00,,,0.00,WUHU216PEETBRO,2013-03-05 00:14:00,
2013-03-04 18:19:00,66.8,0.0,0.00,SW,217,6.8,16.1,0,0.00,,,0.00,WUHU216PEETBRO,2013-03-05 00:19:00,
2013-03-04 18:24:00,66.8,0.0,0.00,SW,234,9.3,17.7,0,0.00,,,0.00,WUHU216PEETBRO,2013-03-05 00:24:00,
2013-03-04 18:29:00,66.4,0.0,0.00,South,169,12.7,17.7,0,0.00,,,0.00,WUHU216PEETBRO,2013-03-05 00:29:00,
2013-03-04 18:34:00,66.8,0.0,0.00,WNW,303,8.6,17.3,0,0.00,,,0.00,WUHU216PEETBRO,2013-03-05 00:34:00,
2013-03-04 18:39:00,66.8,0.0,0.00,WNW,290,3.7,16.9,0,0.00,,,0.00,WUHU216PEETBRO,2013-03-05 00:39:00,
2013-03-04 18:44:00,66.4,0.0,0.00,SW,221,5.7,15.4,0,0.00,,,0.00,WUHU216PEETBRO,2013-03-05 00:44:00,
2013-03-04 18:49:00,65.9,0.0,0.00,SSW,201,8.7,15.4,0,0.00,,,0.00,WUHU216PEETBRO,2013-03-05 00:49:00,
2013-03-04 18:54:00,66.2,0.0,0.00,WSW,238,7.5,16.1,0,0.00,,,0.00,WUHU216PEETBRO,2013-03-05 00:54:00,
2013-03-04 18:59:00,66.2,0.0,0.00,WSW,239,9.5,16.1,0,0.00,,,0.00,WUHU216PEETBRO,2013-03-05 00:59:00,
2013-03-04 19:04:00,65.9,0.0,0.00,WSW,241,10.4,13.5,0,0.00,,,0.00,WUHU216PEETBRO,2013-03-05 01:04:00,
2013-03-04 19:09:00,66.2,0.0,0.00,West,278,6.5,15.3,0,0.00,,,0.00,WUHU216PEETBRO,2013-03-05 01:09:00,
2013-03-04 19:14:00,66.2,0.0,0.00,WSW,255,6.2,16.6,0,0.00,,,0.00,WUHU216PEETBRO,2013-03-05 01:14:00,
2013-03-04 19:19:00,65.9,0.0,0.00,WSW,245,8.9,16.6,0,0.00,,,0.00,WUHU216PEETBRO,2013-03-05 01:19:00,
2013-03-04 19:24:00,65.6,0.0,0.00,WSW,238,5.2,15.6,0,0.00,,,0.00,WUHU216PEETBRO,2013-03-05 01:24:00,
2013-03-04 19:29:00,65.9,0.0,0.00,West,269,8.9,17.1,0,0.00,,,0.00,WUHU216PEETBRO,2013-03-05 01:29:00,
2013-03-04 19:34:00,66.2,0.0,0.00,WNW,285,8.3,19.0,0,0.00,,,0.00,WUHU216PEETBRO,2013-03-05 01:34:00,
2013-03-04 19:39:00,65.6,0.0,0.00,West,265,5.8,19.0,0,0.00,,,0.00,WUHU216PEETBRO,2013-03-05 01:39:00,
2013-03-04 19:44:00,65.0,0.0,0.00,WNW,282,3.6,14.0,0,0.00,,,0.00,WUHU216PEETBRO,2013-03-05 01:44:00,
2013-03-04 19:49:00,65.0,0.0,0.00,SW,227,6.0,12.9,0,0.00,,,0.00,WUHU216PEETBRO,2013-03-05 01:49:00,
2013-03-04 19:54:00,65.4,0.0,0.00,SSW,206,8.6,14.3,0,0.00,,,0.00,WUHU216PEETBRO,2013-03-05 01:54:00,
2013-03-04 19:59:00,65.0,0.0,0.00,WSW,247,9.2,14.3,0,0.00,,,0.00,WUHU216PEETBRO,2013-03-05 01:59:00,
2013-03-04 20:04:00,65.3,0.0,0.00,West,271,6.4,13.5,0,0.00,,,0.00,WUHU216PEETBRO,2013-03-05 02:04:00,
2013-03-04 20:09:00,65.1,0.0,0.00,WNW,299,6.1,14.0,0,0.00,,,0.00,WUHU216PEETBRO,2013-03-05 02:09:00,
2013-03-04 20:14:00,65.3,0.0,0.00,WNW,285,2.7,14.5,0,0.00,,,0.00,WUHU216PEETBRO,2013-03-05 02:14:00,
2013-03-04 20:19:00,65.1,0.0,0.00,West,275,6.0,15.5,0,0.00,,,0.00,WUHU216PEETBRO,2013-03-05 02:19:00,
2013-03-04 20:24:00,64.8,0.0,0.00,WSW,247,6.2,15.5,0,0.00,,,0.00,WUHU216PEETBRO,2013-03-05 02:24:00,
2013-03-04 20:29:00,64.5,0.0,0.00,WSW,238,5.8,14.5,0,0.00,,,0.00,WUHU216PEETBRO,2013-03-05 02:29:00,
2013-03-04 20:34:00,64.5,0.0,0.00,WSW,242,7.3,14.5,0,0.00,,,0.00,WUHU216PEETBRO,2013-03-05 02:34:00,
2013-03-04 20:39:00,64.5,0.0,0.00,WSW,237,6.2,13.5,0,0.00,,,0.00,WUHU216PEETBRO,2013-03-05 02:39:00,
2013-03-04 20:44:00,64.8,0.0,0.00,WSW,238,7.7,13.5,0,0.00,,,0.00,WUHU216PEETBRO,2013-03-05 02:44:00,
2013-03-04 20:49:00,64.5,0.0,0.00,SW,230,8.4,13.0,0,0.00,,,0.00,WUHU216PEETBRO,2013-03-05 02:49:00,
2013-03-04 20:54:00,63.7,0.0,0.00,West,259,4.8,12.7,0,0.00,,,0.00,WUHU216PEETBRO,2013-03-05 02:54:00,
2013-03-04 20:59:00,64.5,0.0,0.00,South,176,2.1,12.9,0,0.00,,,0.00,WUHU216PEETBRO,2013-03-05 02:59:00,
2013-03-04 21:04:00,63.7,0.0,0.00,WSW,255,8.2,12.9,0,0.00,,,0.00,WUHU216PEETBRO,2013-03-05 03:04:00,
2013-03-04 21:09:00,63.7,0.0,0.00,SW,220,8.0,11.0,0,0.00,,,0.00,WUHU216PEETBRO,2013-03-05 03:09:00,
2013-03-04 21:14:00,64.2,0.0,0.00,SW,235,6.8,11.9,0,0.00,,,0.00,WUHU216PEETBRO,2013-03-05 03:14:00,
2013-03-04 21:19:00,63.7,0.0,0.00,SW,230,6.9,12.1,0,0.00,,,0.00,WUHU216PEETBRO,2013-03-05 03:19:00,
2013-03-04 21:24:00,64.2,0.0,0.00,WSW,237,4.2,12.1,0,0.00,,,0.00,WUHU216PEETBRO,2013-03-05 03:24:00,
2013-03-04 21:29:00,64.2,0.0,0.00,West,275,3.4,11.1,0,0.00,,,0.00,WUHU216PEETBRO,2013-03-05 03:29:00,
2013-03-04 21:34:00,64.5,0.0,0.00,West,262,6.6,11.8,0,0.00,,,0.00,WUHU216PEETBRO,2013-03-05 03:34:00,
2013-03-04 21:39:00,64.5,0.0,0.00,WSW,256,4.7,11.8,0,0.00,,,0.00,WUHU216PEETBRO,2013-03-05 03:39:00,
2013-03-04 21:44:00,64.5,0.0,0.00,WSW,244,6.2,13.3,0,0.00,,,0.00,WUHU216PEETBRO,2013-03-05 03:44:00,
2013-03-04 21:49:00,64.5,0.0,0.00,West,261,3.5,13.3,0,0.00,,,0.00,WUHU216PEETBRO,2013-03-05 03:49:00,
2013-03-04 21:54:00,64.5,0.0,0.00,SW,235,5.8,13.2,0,0.00,,,0.00,WUHU216PEETBRO,2013-03-05 03:54:00,
2013-03-04 21:59:00,64.5,0.0,0.00,SW,235,5.3,13.2,0,0.00,,,0.00,WUHU216PEETBRO,2013-03-05 03:59:00,
2013-03-04 22:04:00,64.8,0.0,0.00,SSW,208,4.6,10.4,0,0.00,,,0.00,WUHU216PEETBRO,2013-03-05 04:04:00,
2013-03-04 22:09:00,64.2,0.0,0.00,WSW,245,6.1,9.5,0,0.00,,,0.00,WUHU216PEETBRO,2013-03-05 04:09:00,
2013-03-04 22:14:00,64.2,0.0,0.00,SSE,158,5.5,9.5,0,0.00,,,0.00,WUHU216PEETBRO,2013-03-05 04:14:00,
2013-03-04 22:19:00,64.5,0.0,0.00,SW,234,4.6,11.4,0,0.00,,,0.00,WUHU216PEETBRO,2013-03-05 04:19:00,
2013-03-04 22:24:00,63.9,0.0,0.00,SW,232,8.0,11.4,0,0.00,,,0.00,WUHU216PEETBRO,2013-03-05 04:24:00,
2013-03-04 22:29:00,63.9,0.0,0.00,SW,221,6.5,12.8,0,0.00,,,0.00,WUHU216PEETBRO,2013-03-05 04:29:00,
2013-03-04 22:34:00,64.2,0.0,0.00,SSW,208,6.9,12.8,0,0.00,,,0.00,WUHU216PEETBRO,2013-03-05 04:34:00,
2013-03-04 22:39:00,64.2,0.0,0.00,SSW,203,6.2,11.9,0,0.00,,,0.00,WUHU216PEETBRO,2013-03-05 04:39:00,
2013-03-04 22:44:00,64.2,0.0,0.00,SW,230,10.0,11.9,0,0.00,,,0.00,WUHU216PEETBRO,2013-03-05 04:44:00,
2013-03-04 22:49:00,63.9,0.0,0.00,WNW,282,3.9,10.6,0,0.00,,,0.00,WUHU216PEETBRO,2013-03-05 04:49:00,
2013-03-04 22:54:00,63.7,0.0,0.00,WSW,239,4.9,10.6,0,0.00,,,0.00,WUHU216PEETBRO,2013-03-05 04:54:00,
2013-03-04 22:59:00,63.7,0.0,0.00,SW,234,2.5,11.6,0,0.00,,,0.00,WUHU216PEETBRO,2013-03-05 04:59:00,
2013-03-04 23:00:00,63.7,0.0,0.00,WSW,249,5.5,11.6,0,0.00,,,0.00,WUHU216PEETBRO,2013-03-05 05:00:00,
2013-03-04 23:01:00,63.9,0.0,0.00,SW,230,4.6,11.6,0,0.00,,,0.00,WUHU216PEETBRO,2013-03-05 05:01:00,
2013-03-04 23:06:00,63.9,0.0,0.00,West,266,3.5,11.1,0,0.00,,,0.00,WUHU216PEETBRO,2013-03-05 05:06:00,
2013-03-04 23:11:00,64.2,0.0,0.00,SW,220,4.5,11.1,0,0.00,,,0.00,WUHU216PEETBRO,2013-03-05 05:11:00,
2013-03-04 23:16:00,63.9,0.0,0.00,SW,232,5.3,10.3,0,0.00,,,0.00,WUHU216PEETBRO,2013-03-05 05:16:00,
2013-03-04 23:21:00,63.9,0.0,0.00,West,268,6.5,9.6,0,0.00,,,0.00,WUHU216PEETBRO,2013-03-05 05:21:00,
2013-03-04 23:26:00,63.9,0.0,0.00,WSW,245,4.0,9.1,0,0.00,,,0.00,WUHU216PEETBRO,2013-03-05 05:26:00,
2013-03-04 23:31:00,63.7,0.0,0.00,South,183,4.1,8.0,0,0.00,,,0.00,WUHU216PEETBRO,2013-03-05 05:31:00,
2013-03-04 23:36:00,63.7,0.0,0.00,SSW,194,1.5,8.0,0,0.00,,,0.00,WUHU216PEETBRO,2013-03-05 05:36:00,
2013-03-04 23:41:00,64.2,0.0,0.00,SW,217,5.2,8.0,0,0.00,,,0.00,WUHU216PEETBRO,2013-03-05 05:41:00,
2013-03-04 23:46:00,64.2,0.0,0.00,SW,221,4.3,6.7,0,0.00,,,0.00,WUHU216PEETBRO,2013-03-05 05:46:00,
2013-03-04 23:51:00,63.7,0.0,0.00,SW,224,3.5,8.7,0,0.00,,,0.00,WUHU216PEETBRO,2013-03-05 05:51:00,
2013-03-04 23:56:00,63.7,0.0,0.00,SW,220,4.2,8.7,0,0.00,,,0.00,WUHU216PEETBRO,2013-03-05 05:56:00,